Temp
-3 -3 -4 -4 -4 -5 -4 -4 -4 -4 -4 -4 -4 -4 -5 -5 -5 -5 -6 -7 -7 -6 -6 -6 -6 -6 -7 -8 -9 -9 -9 -7 -6 -4 -3 -3 -3 -3 -3 -2 -1 -1 -2
-3 -3 -4 -4 -4 -5 -4 -4 -4 -4 -4 -5 -5 -5 -5 -5 -5 -5 -6 -5 -5 -7 -6 -6 -6 -6 -6 -7 -8 -8 -8 -7 -7 -6 -5 -3 -3 -3 -2 -2 -2 -1 -1
-4 -4 -5 -5 -5 -5 -5 -4 -4 -4 -5 -5 -5 -5 -5 -5 -5 -5 -5 -5 -5 -6 -7 -7 -6 -6 -6 -6 -7 -7 -7 -7 -7 -7 -6 -5 -5 -5 -3 -4 -2 -2 -1
-4 -5 -5 -5 -6 -6 -5 -5 -5 -5 -5 -5 -5 -5 -5 -5 -5 -5 -5 -5 -6 -6 -6 -5 -6 -6 -6 -6 -6 -7 -7 -7 -6 -6 -6 -6 -6 -6 -5 -5 -5 -3 -2
-5 -5 -5 -6 -7 -6 -5 -5 -5 -5 -5 -5 -5 -5 -5 -6 -6 -5 -5 -6 -6 -6 -6 -6 -6 -6 -6 -6 -6 -6 -6 -7 -6 -6 -6 -6 -5 -5 -6 -6 -5 -6 -6
-5 -5 -6 -7 -7 -6 -5 -5 -5 -6 -6 -6 -6 -6 -6 -6 -6 -6 -6 -6 -6 -6 -6 -6 -6 -6 -5 -6 -5 -7 -6 -6 -6 -6 -6 -6 -6 -6 -5 -5 -5 -5 -5
-5 -6 -7 -7 -7 -6 -6 -6 -6 -6 -6 -6 -6 -6 -6 -6 -6 -6 -6 -6 -6 -6 -6 -6 -6 -6 -6 -5 -5 -6 -6 -6 -6 -6 -6 -5 -6 -6 -6 -6 -6 -6 -5
-6 -7 -7 -7 -7 -7 -6 -6 -6 -6 -7 -6 -6 -6 -6 -6 -6 -6 -6 -6 -6 -6 -6 -6 -6 -6 -6 -6 -6 -6 -6 -6 -5 -5 -6 -5 -5 -5 -5 -6 -6 -6 -6
-6 -7 -7 -8 -7 -7 -7 -7 -7 -7 -7 -7 -7 -7 -7 -7 -7 -7 -7 -7 -7 -7 -7 -7 -7 -6 -6 -6 -6 -6 -6 -6 -6 -6 -5 -5 -5 -5 -5 -5 -5 -5 -5
-7 -7 -8 -8 -7 -7 -7 -7 -8 -8 -7 -7 -7 -7 -7 -7 -7 -7 -7 -7 -7 -8 -8 -8 -8 -7 -7 -7 -7 -7 -7 -6 -6 -5 -5 -6 -6 -6 -6 -6 -6 -6 -6
-7 -8 -8 -8 -8 -8 -8 -8 -8 -8 -8 -8 -8 -8 -8 -8 -8 -8 -8 -8 -8 -8 -8 -8 -8 -8 -8 -8 -8 -8 -8 -7 -7 -7 -7 -7 -7 -7 -7 -7 -6 -6 -6
-8 -8 -8 -8 -8 -8 -8 -9 -9 -9 -8 -8 -8 -8 -8 -8 -8 -8 -8 -8 -9 -8 -9 -9 -9 -9 -9 -9 -8 -8 -8 -8 -8 -8 -8 -8 -8 -8 -7 -7 -7 -6 -6
-8 -8 -8 -8 -9 -9 -9 -9 -9 -9 -9 -9 -9 -9 -9 -9 -9 -9 -9 -9 -9 -9 -9 -9 -9 -9 -9 -9 -9 -9 -9 -10 -10 -10 -9 -9 -9 -8 -8 -8 -8 -7 -7
-8 -9 -9 -9 -9 -9 -9 -10 -10 -10 -10 -10 -10 -10 -10 -10 -10 -10 -10 -10 -10 -10 -10 -10 -10 -10 -10 -10 -10 -10 -10 -10 -10 -10 -10 -10 -10 -10 -10 -10 -10 -10 -9
-8 -9 -9 -9 -9 -10 -10 -10 -10 -11 -11 -11 -11 -11 -11 -11 -11 -11 -11 -11 -11 -11 -11 -11 -11 -11 -11 -11 -11 -11 -11 -11 -11 -11 -11 -11 -11 -11 -11 -10 -10 -10 -10
-9 -9 -10 -10 -10 -10 -10 -10 -11 -11 -12 -12 -12 -12 -12 -12 -12 -12 -12 -12 -12 -12 -12 -11 -12 -12 -12 -12 -12 -12 -12 -12 -12 -12 -12 -12 -11 -11 -11 -11 -11 -11 -10
-9 -10 -10 -10 -10 -11 -11 -11 -11 -12 -13 -13 -12 -12 -13 -12 -12 -12 -12 -12 -12 -12 -12 -12 -12 -13 -13 -13 -13 -13 -13 -13 -13 -13 -13 -13 -13 -13 -13 -13 -13 -13 -13
-10 -10 -10 -11 -11 -11 -11 -12 -12 -13 -13 -13 -13 -13 -13 -13 -13 -13 -13 -13 -13 -13 -13 -13 -13 -14 -14 -14 -14 -14 -14 -14 -14 -14 -14 -14 -14 -14 -14 -14 -14 -14 -15
-10 -11 -11 -11 -12 -12 -12 -13 -13 -13 -14 -14 -14 -14 -14 -14 -14 -14 -14 -14 -14 -14 -14 -14 -14 -15 -15 -15 -15 -15 -15 -15 -15 -15 -15 -15 -15 -16 -16 -16 -16 -16 -16
-10 -11 -11 -11 -13 -13 -13 -13 -14 -14 -15 -15 -15 -15 -15 -15 -15 -15 -15 -15 -15 -15 -15 -15 -16 -16 -16 -16 -16 -16 -16 -16 -16 -16 -17 -17 -17 -17 -17 -18 -18 -18 -18
-11 -11 -11 -12 -13 -15 -16 -15 -15 -15 -15 -15 -16 -16 -16 -17 -16 -16 -16 -16 -16 -16 -16 -16 -16 -17 -17 -17 -17 -17 -17 -18 -18 -18 -18 -18 -18 -19 -19 -19 -20 -20 -20
-12 -12 -12 -13 -14 -15 -17 -17 -17 -17 -17 -16 -16 -17 -17 -17 -17 -16 -16 -17 -17 -17 -17 -17 -18 -18 -18 -18 -18 -18 -18 -19 -19 -19 -19 -19 -20 -20 -20 -21 -21 -21 -22
-12 -13 -13 -14 -15 -15 -16 -17 -17 -17 -18 -17 -17 -18 -18 -18 -17 -17 -17 -17 -18 -18 -18 -18 -18 -19 -19 -19 -19 -19 -19 -20 -20 -20 -20 -21 -21 -21 -22 -22 -22 -23 -23
-13 -14 -15 -15 -16 -16 -17 -18 -17 -18 -19 -18 -18 -18 -19 -18 -18 -18 -18 -18 -18 -19 -19 -19 -20 -20 -20 -20 -20 -20 -20 -20 -21 -21 -22 -22 -22 -22 -23 -23 -23 -24 -24
-14 -15 -15 -16 -17 -17 -18 -19 -19 -18 -18 -18 -18 -18 -19 -19 -19 -19 -19 -19 -19 -19 -20 -20 -21 -20 -20 -21 -21 -21 -21 -21 -22 -22 -23 -23 -23 -24 -24 -24 -24 -25 -25
-14 -15 -16 -17 -17 -18 -18 -19 -19 -19 -18 -19 -19 -19 -19 -19 -19 -19 -19 -19 -20 -20 -21 -21 -21 -21 -21 -21 -22 -22 -22 -23 -23 -23 -23 -24 -24 -24 -25 -25 -25 -25 -26
Height
3056 3053 3050 3046 3042 3039 3038 3036 3031 3026 3022 3018 3013 3007 3000 2992 2984 2978 2971 2964 2956 2949 2945 2940 2936 2932 2929 2927 2928 2931 2935 2940 2946 2952 2958 2966 2971 2974 2977 2979 2983 2988 2994
3051 3048 3044 3041 3038 3037 3036 3033 3029 3025 3021 3016 3012 3006 3001 2995 2986 2981 2975 2968 2962 2954 2948 2943 2939 2934 2931 2928 2928 2930 2934 2938 2944 2948 2952 2959 2963 2967 2970 2974 2977 2981 2986
3045 3042 3039 3036 3035 3033 3033 3029 3026 3023 3019 3016 3012 3007 3002 2997 2990 2984 2978 2972 2967 2961 2955 2948 2942 2938 2935 2932 2931 2931 2933 2938 2942 2946 2950 2954 2958 2961 2965 2968 2971 2975 2979
3040 3037 3035 3032 3031 3029 3028 3026 3023 3021 3018 3015 3012 3008 3003 2998 2992 2986 2981 2976 2971 2966 2961 2955 2950 2944 2940 2938 2937 2936 2937 2940 2943 2947 2950 2953 2956 2959 2962 2964 2966 2968 2971
3034 3032 3029 3027 3026 3024 3024 3023 3021 3019 3016 3014 3012 3007 3003 2999 2995 2989 2984 2979 2975 2970 2966 2961 2957 2952 2948 2945 2943 2943 2943 2944 2945 2946 2949 2951 2953 2956 2959 2961 2962 2964 2965
3028 3026 3024 3022 3021 3020 3021 3020 3018 3017 3015 3012 3011 3008 3004 3000 2996 2992 2987 2982 2979 2975 2971 2966 2963 2959 2956 2953 2950 2948 2947 2947 2948 2949 2950 2951 2953 2955 2956 2957 2959 2960 2962
3022 3020 3019 3018 3017 3018 3018 3017 3015 3014 3013 3011 3009 3007 3004 3001 2997 2993 2989 2985 2982 2979 2974 2971 2968 2965 2962 2959 2957 2955 2954 2953 2952 2951 2952 2952 2953 2954 2955 2956 2956 2957 2958
3016 3015 3014 3014 3013 3014 3014 3013 3012 3011 3011 3009 3007 3006 3003 3001 2998 2994 2990 2987 2983 2980 2977 2974 2971 2969 2966 2964 2961 2960 2959 2958 2957 2956 2956 2955 2955 2955 2955 2955 2956 2956 2957
3011 3010 3009 3009 3009 3010 3010 3009 3008 3008 3008 3006 3005 3004 3002 3000 2998 2994 2991 2988 2985 2982 2978 2975 2973 2970 2969 2967 2965 2964 2962 2961 2960 2958 2957 2956 2956 2955 2955 2955 2955 2955 2955
3005 3004 3004 3005 3005 3006 3006 3005 3005 3004 3004 3003 3002 3001 3000 2998 2996 2993 2991 2988 2985 2983 2980 2976 2973 2971 2968 2966 2965 2964 2962 2961 2959 2958 2957 2956 2955 2954 2954 2953 2952 2952 2951
3000 3000 3000 3001 3001 3002 3002 3002 3001 3000 3000 3000 2999 2998 2997 2996 2994 2992 2990 2987 2984 2982 2980 2978 2975 2972 2969 2967 2965 2964 2963 2960 2958 2957 2955 2954 2953 2953 2952 2951 2950 2950 2949
2995 2995 2995 2996 2997 2997 2997 2997 2997 2997 2996 2996 2996 2995 2994 2993 2991 2990 2988 2986 2983 2981 2979 2976 2974 2972 2969 2967 2964 2961 2959 2957 2956 2954 2953 2951 2950 2949 2948 2946 2945 2945 2944
2989 2990 2991 2992 2992 2992 2992 2993 2993 2993 2992 2992 2992 2992 2991 2990 2988 2987 2985 2983 2981 2978 2976 2974 2971 2969 2967 2964 2961 2958 2956 2954 2953 2951 2950 2948 2945 2943 2940 2939 2937 2936 2935
2985 2986 2986 2987 2987 2987 2987 2988 2988 2988 2988 2989 2988 2988 2987 2986 2985 2983 2981 2979 2978 2975 2973 2971 2969 2967 2965 2963 2960 2957 2954 2952 2950 2948 2945 2943 2941 2939 2936 2933 2930 2927 2925
2980 2981 2981 2981 2982 2982 2983 2983 2984 2984 2984 2984 2984 2983 2983 2982 2981 2979 2977 2976 2974 2972 2970 2968 2966 2964 2961 2958 2956 2952 2950 2947 2945 2942 2940 2937 2935 2932 2930 2927 2924 2921 2918
2975 2976 2976 2976 2976 2977 2978 2978 2979 2979 2979 2979 2979 2979 2978 2977 2977 2975 2974 2972 2970 2968 2966 2964 2962 2960 2957 2955 2952 2949 2946 2943 2940 2937 2934 2931 2928 2925 2922 2919 2916 2913 2911
2969 2969 2970 2970 2971 2971 2971 2972 2973 2973 2974 2974 2974 2974 2973 2973 2972 2971 2970 2968 2966 2964 2962 2960 2957 2955 2952 2949 2946 2943 2940 2938 2934 2931 2928 2925 2922 2920 2917 2914 2911 2907 2904
2962 2963 2964 2964 2964 2965 2966 2966 2966 2967 2968 2968 2968 2968 2968 2967 2966 2966 2965 2963 2962 2960 2957 2955 2952 2950 2946 2943 2940 2937 2934 2931 2928 2925 2921 2918 2915 2912 2908 2905 2901 2897 2893
2955 2956 2957 2957 2957 2958 2958 2959 2960 2960 2961 2961 2962 2962 2962 2961 2960 2959 2958 2957 2956 2954 2951 2949 2946 2944 2941 2937 2934 2931 2928 2924 2921 2918 2915 2911 2907 2903 2899 2895 2892 2888 2883
2948 2948 2949 2949 2949 2950 2951 2952 2953 2954 2954 2954 2955 2956 2956 2955 2954 2953 2952 2951 2949 2947 2945 2942 2939 2937 2934 2930 2927 2924 2920 2917 2914 2910 2906 2902 2898 2894 2890 2887 2882 2878 2874
2940 2940 2941 2940 2941 2942 2943 2945 2946 2947 2948 2948 2949 2949 2948 2948 2948 2946 2945 2944 2942 2940 2937 2934 2932 2929 2926 2923 2920 2917 2913 2910 2906 2902 2898 2894 2890 2886 2881 2878 2874 2869 2866
2933 2932 2932 2933 2933 2934 2936 2938 2940 2941 2941 2942 2943 2943 2942 2942 2941 2940 2938 2937 2935 2932 2929 2926 2923 2921 2918 2915 2912 2909 2905 2902 2898 2894 2890 2886 2882 2878 2874 2871 2867 2863 2859
2925 2925 2925 2925 2926 2927 2929 2931 2933 2933 2934 2935 2935 2935 2935 2935 2934 2932 2931 2929 2927 2924 2921 2918 2916 2914 2911 2908 2905 2902 2898 2895 2891 2887 2883 2879 2875 2872 2868 2863 2860 2856 2851
2918 2918 2918 2919 2920 2922 2923 2925 2926 2927 2928 2929 2929 2929 2928 2928 2927 2925 2923 2921 2919 2916 2914 2911 2909 2907 2903 2900 2897 2894 2891 2887 2884 2880 2876 2872 2868 2864 2860 2856 2852 2848 2844
2912 2912 2912 2913 2915 2916 2917 2919 2921 2921 2922 2922 2922 2922 2922 2921 2919 2917 2915 2913 2911 2909 2906 2904 2902 2899 2896 2893 2890 2886 2883 2879 2876 2872 2869 2865 2861 2857 2853 2849 2845 2841 2836
2907 2907 2908 2909 2910 2912 2913 2914 2915 2916 2916 2916 2916 2916 2915 2914 2912 2910 2908 2906 2903 2901 2899 2897 2894 2891 2889 2886 2882 2879 2875 2872 2868 2865 2861 2857 2853 2849 2846 2842 2838 2833 2829
Wind_Speed
31 29 27 25 24 22 23 23 22 22 22 23 23 24 26 26 24 25 32 35 32 24 15 16 14 13 9 8 8 10 21 27 29 31 34 38 42 42 42 44 43 40 35
29 28 26 24 23 22 22 21 20 20 20 20 20 21 23 22 24 25 27 26 30 32 28 16 13 15 14 6 5 8 12 15 13 13 20 24 31 35 38 40 40 41 38
29 28 26 23 23 22 20 19 18 18 17 18 18 19 20 21 22 22 25 28 31 32 34 33 20 12 17 16 8 3 6 10 9 7 9 12 15 21 22 23 29 35 36
29 27 25 22 22 17 17 17 16 16 15 16 17 18 18 20 21 22 24 26 28 29 31 30 33 22 14 18 17 13 7 9 14 13 11 13 18 17 19 19 22 24 27
27 26 23 22 17 15 16 15 14 13 13 13 15 16 17 19 19 20 21 23 25 27 28 29 30 30 29 23 18 15 15 11 4 10 13 17 15 11 16 16 15 18 21
25 24 21 20 15 15 16 15 12 11 11 10 12 13 14 16 17 19 20 21 22 23 24 27 27 25 26 25 23 23 21 9 5 7 6 5 3 6 7 8 12 16 14
23 21 19 18 16 16 16 15 12 10 10 9 9 11 13 14 16 18 18 20 21 21 22 22 23 23 23 22 23 23 21 18 16 13 8 1 5 6 5 5 8 13 19
21 20 18 18 17 16 15 14 12 10 10 9 9 9 10 12 13 14 16 17 18 19 20 20 21 21 21 21 21 19 18 17 14 11 10 8 6 4 2 0 2 3 5
20 19 18 18 17 17 16 13 11 11 11 9 9 8 9 10 11 12 13 14 15 15 16 17 17 17 17 17 17 15 15 13 11 9 8 7 5 4 2 2 3 5 7
18 18 18 18 17 16 16 14 12 11 12 11 11 10 9 9 10 11 12 13 14 15 15 15 16 16 16 16 16 15 15 13 11 10 10 11 10 9 9 9 10 10 11
17 17 17 17 17 18 19 16 14 13 13 13 12 11 11 10 10 11 12 12 13 14 14 15 16 16 16 16 15 15 14 14 14 13 13 12 12 11 12 12 13 13 14
16 16 17 18 18 17 17 16 17 16 15 14 13 12 12 11 12 12 12 12 13 14 14 15 16 17 18 18 17 17 18 18 17 17 17 17 16 16 16 16 15 15 16
15 16 18 19 18 17 17 16 16 16 16 16 14 14 13 13 13 13 13 14 14 14 15 16 17 19 22 23 23 22 21 19 19 19 18 19 20 21 21 21 21 22 23
16 17 18 19 19 17 16 16 17 17 17 16 15 15 15 14 14 15 15 15 15 15 15 15 18 21 23 24 23 22 21 21 21 20 20 21 21 21 22 24 25 27 29
17 17 17 18 19 18 17 17 18 17 17 16 17 17 17 17 15 16 16 16 15 15 16 17 21 25 25 25 24 24 23 24 24 24 24 24 24 24 25 26 28 29 31
18 18 18 20 19 18 17 18 17 16 15 16 18 19 18 18 18 18 17 17 17 16 17 21 24 25 25 24 24 24 24 24 24 25 26 26 27 28 29 30 32 33 35
20 20 20 21 20 20 19 18 18 17 17 18 21 20 19 19 19 19 18 18 17 17 19 23 26 27 26 25 25 25 25 25 26 27 27 28 29 29 30 30 31 33 34
22 22 22 22 22 22 22 20 19 18 18 19 20 20 19 20 20 20 19 18 18 19 22 27 27 27 26 26 26 26 26 27 27 28 29 30 31 31 32 33 34 35 36
24 24 24 25 24 24 23 22 22 22 21 21 21 20 19 19 21 20 21 20 20 23 26 28 27 27 27 26 27 27 27 28 29 29 30 31 32 34 34 34 35 36 37
24 24 25 27 27 26 25 25 23 22 21 22 20 19 19 19 19 19 20 21 24 26 28 28 27 27 27 27 27 27 28 28 30 31 32 32 33 34 34 34 35 36 37
24 25 26 27 27 28 25 24 23 21 21 23 22 22 23 22 21 22 24 27 28 27 28 28 27 26 26 27 27 28 29 29 30 32 32 33 33 34 34 34 35 36 37
23 24 24 24 26 27 26 26 25 25 21 21 22 19 19 20 24 27 28 27 28 28 28 27 27 26 26 28 28 28 29 29 30 32 33 32 32 32 33 34 34 35 35
21 22 21 21 22 23 25 25 24 26 26 26 23 23 24 25 26 27 28 29 27 27 27 26 26 25 27 28 28 28 29 30 30 31 31 31 31 31 32 33 33 33 33
18 18 17 17 17 18 20 21 19 19 20 20 20 21 23 26 28 28 27 27 26 26 25 24 25 26 27 28 28 29 30 30 30 29 29 29 30 31 31 32 32 32 32
16 15 15 15 16 17 19 19 19 20 22 26 26 24 25 27 28 27 27 26 26 25 24 24 25 26 27 28 29 29 30 30 29 28 28 29 29 29 29 30 31 32 32
13 13 14 13 14 16 17 18 21 22 21 20 22 24 26 25 25 25 26 25 25 24 23 24 26 26 26 28 28 29 29 28 28 28 28 28 28 28 29 30 31 32 32
Wind_Direction
315 315 312 311 306 305 315 317 322 332 337 338 341 348 359 11 10 15 19 21 24 23 12 18 1 357 333 276 241 228 233 235 237 234 229 226 229 235 239 245 246 251 251
309 309 308 305 302 298 307 314 322 329 333 339 345 357 0 5 15 20 23 23 20 21 26 14 18 24 14 353 240 208 234 231 217 227 234 227 230 235 238 242 247 251 255
302 304 303 298 296 292 302 312 321 328 336 342 348 358 3 9 19 19 24 27 30 29 33 32 25 34 37 35 49 115 161 174 177 195 216 210 225 241 242 243 246 248 252
298 297 297 293 292 288 301 311 318 326 334 343 345 354 2 9 14 21 27 29 30 30 31 31 29 41 48 54 51 58 88 158 159 159 173 197 222 230 229 253 245 248 246
294 294 291 292 283 288 301 305 311 322 334 343 341 355 2 11 11 21 28 32 31 30 31 35 35 37 48 56 62 65 69 73 145 213 217 209 213 207 231 248 257 256 257
291 287 285 289 281 288 291 297 301 316 325 338 343 353 1 10 12 20 25 31 32 32 32 34 36 37 40 46 52 51 56 77 97 98 108 110 199 249 254 267 249 251 261
286 281 278 277 279 280 281 285 291 305 313 328 341 353 358 6 9 17 21 28 31 30 33 34 34 35 38 41 43 44 46 50 60 66 73 130 210 233 247 263 271 255 257
279 274 271 268 273 274 275 276 283 292 298 313 327 341 350 359 5 12 16 21 24 23 24 27 30 29 29 32 39 36 35 32 36 45 53 59 65 71 78 326 270 263 261
271 267 265 263 266 268 268 267 271 280 288 298 306 320 334 344 350 2 8 16 19 16 18 21 23 24 23 25 30 25 29 21 20 29 31 28 27 25 11 303 281 304 297
266 264 262 261 260 266 264 265 264 268 276 284 293 304 316 325 336 349 354 0 5 5 7 13 12 13 17 17 13 9 9 360 360 3 4 1 357 352 345 336 327 320 313
268 264 262 260 258 260 263 272 265 263 270 276 283 293 304 315 324 333 339 344 350 352 357 359 1 2 3 3 2 1 351 349 353 350 347 343 341 337 331 325 318 312 307
266 263 260 260 260 263 263 254 257 262 264 271 278 285 293 302 310 317 323 328 332 337 343 347 351 353 351 349 348 346 345 345 345 343 338 335 330 324 319 314 309 307 308
264 263 262 261 260 261 261 260 261 262 265 269 274 282 288 295 301 306 312 316 320 326 332 338 341 344 341 337 336 335 336 336 334 332 329 325 323 321 320 320 320 319 318
261 262 262 262 261 260 264 263 261 264 267 272 276 281 284 289 294 300 303 307 311 315 320 328 334 335 332 328 326 326 325 323 323 322 321 320 321 322 321 321 322 323 322
264 266 264 263 262 262 261 264 261 260 264 272 279 280 284 289 292 295 298 301 304 309 315 322 328 330 327 323 321 320 319 320 321 320 319 318 318 319 319 319 318 318 317
265 265 261 260 260 259 259 265 263 262 264 274 276 279 283 286 289 292 294 297 300 305 312 322 325 324 320 317 315 314 313 315 315 315 315 316 318 319 318 317 316 315 312
261 260 259 259 259 256 254 257 255 253 268 274 274 276 279 282 284 286 288 290 293 301 312 318 321 317 315 314 312 311 311 313 313 314 315 315 315 314 315 315 313 312 311
261 259 261 259 257 257 256 254 250 249 257 264 268 270 276 280 281 283 287 289 293 302 312 314 312 312 312 311 310 310 311 312 313 314 314 314 314 315 315 315 315 314 313
259 258 258 257 252 254 255 253 251 254 262 263 266 268 267 267 272 277 281 285 292 302 306 307 307 308 308 308 308 309 310 311 313 313 313 314 315 316 316 317 316 315 315
258 258 258 258 251 248 252 251 252 252 252 255 259 265 268 269 271 275 277 284 294 300 301 301 303 305 306 307 308 310 310 312 313 313 315 316 316 316 316 317 317 317 316
259 258 257 257 251 245 246 249 251 251 252 256 257 258 263 265 266 273 282 291 295 297 298 300 301 303 304 306 308 309 311 313 313 313 314 316 316 316 317 318 317 316 315
264 263 262 259 252 247 242 244 243 247 248 254 255 256 259 264 273 280 286 290 296 296 297 300 300 304 305 307 308 310 311 312 313 313 314 315 315 316 316 315 314 313 312
266 263 261 259 255 253 249 243 255 245 247 257 266 267 267 275 281 287 290 292 293 294 297 298 300 304 304 305 307 309 310 311 312 312 312 313 313 314 314 313 312 312 312
266 262 256 250 250 252 246 245 255 250 247 250 255 261 266 277 287 288 290 291 293 295 297 299 302 303 303 306 307 308 310 310 311 311 312 312 313 313 313 312 312 313 312
261 254 246 243 244 245 243 244 250 257 260 259 262 271 280 283 286 288 289 292 296 296 298 301 302 302 304 306 307 310 310 310 311 312 313 312 313 314 313 313 312 312 311
259 250 246 247 248 248 248 247 254 263 271 277 279 279 280 282 284 287 291 294 294 296 300 301 300 303 305 305 308 308 309 309 310 312 314 315 315 315 314 313 313 312 311